sat.trackr.live / text

‹ back to catalog

STARLINK-4259

NORAD 52987 · 2022-076B

PAYLOAD ACTIVE UNKNOWN

§ Identity

Operator
Country
US
Launch date
2022-07-07
Launch site
AFETR
Launch vehicle
Mass (kg)
RCS (m²)

Purposes: comms

External: N2YO · Heavens-Above · Gunter

§ Orbital elements

Epoch: 2026-05-25T04:36:34.492032Z

Period
95.44 min
Inclination
53.2135°
Eccentricity
0.0001150
Mean motion
15.08841865 rev/d
Perigee alt
538.9 km
Apogee alt
540.5 km
Semi-major
6,917.9 km
B*
4.0499e-5
RAAN
120.6879°
Arg perigee
77.7967°
Mean anomaly
282.3154°
Rev number
21,425

§ Raw data

STARLINK-42591 52987U 22076B   26145.19206588  .00000357  00000+0  40499-4 0  99992 52987  53.2135 120.6879 0001150  77.7967 282.3154 15.08841865214250

JSON: /api/v1/satellites/52987 · /tle

For live sub-satellite position, see the globe view (requires WebGL).

§ Visibility from observer

Set your observer location to see the next 7 days of passes ≥ 10°. The values pass through the URL so the page stays shareable.

No JS? Fill the form by hand. The geolocation button needs JavaScript.